Location: Fredericksburg
(30.2750°N, 98.8720°W)
Time: 04:29:59
(UTC-05:00)

Daily predictions for brighter satellites

Satellite Brightness Start Highest point End
(mag) Time Altitude Azimuth Time Altitude Azimuth Time Altitude Azimuth
SL-16 R/B 4.1 03:15:37 30° NE 03:15:37 30° NE 03:19:46 10° N
Resurs 1-4 Rocket 4.4 03:17:46 10° NNE 03:19:26 20° NE 03:19:26 20° NE
CZ-2D R/B 4.2 03:28:07 10° NNE 03:30:15 24° NNE 03:30:15 24° NNE
ARIANE 5 R/B 4.2 03:49:59 10° NNE 03:52:31 29° NNE 03:52:31 29° NNE
ADEOS II 4.2 04:09:35 10° NE 04:13:19 20° E 04:14:51 17° ESE
COSMOS 2406 4.1 04:29:09 39° NNW 04:29:09 39° NNW 04:33:02 10° N
Cosmos 2285 Rocket 4.2 04:31:45 59° NW 04:31:45 59° NW 04:37:16 10° N
Meteor 2-10 4.5 04:38:20 59° SE 04:38:59 64° E 04:44:37 10° NNE
Okean O Rocket 4.0 04:36:11 10° NE 04:39:13 18° E 04:41:18 14° SE
Cosmos 2173 Rocket 4.1 04:47:05 44° SSE 04:49:08 71° E 04:55:27 10° N
Meteor 2-17 Rocket 4.3 04:52:13 67° SSW 04:53:04 82° W 04:59:13 10° N
Sich 1 4.1 04:51:59 10° N 04:54:41 37° NNW 04:54:41 37° NNW
SL-16 R/B 4.0 05:00:43 21° NW 05:00:43 21° NW 05:03:11 10° NW
Cosmos 1455 4.3 05:00:22 17° SE 05:02:10 24° E 05:05:13 10° NE
Resurs 1-4 Rocket 4.0 04:58:42 10° NNW 05:00:31 16° NW 05:00:31 16° NW
Cosmos 1315 Rocket 4.4 05:02:18 10° NNW 05:04:13 27° NNW 05:04:13 27° NNW
Cosmos 2228 Rocket 3.0 05:08:44 77° WNW 05:08:44 77° WNW 05:13:05 10° N
Cosmos 1538 Rocket 4.3 05:11:02 49° WNW 05:11:11 49° WNW 05:16:24 10° N
Cosmos 1459 Rocket 3.8 05:10:07 46° SSW 05:12:00 71° W 05:18:05 10° N
Cosmos 1470 Rocket 4.1 05:08:17 10° N 05:12:33 57° E 05:15:48 16° SSE
CZ-2D R/B 4.1 05:10:01 10° NNW 05:11:33 14° NW 05:11:33 14° NW
Cosmos 1515 Rocket 3.4 05:15:04 73° SW 05:15:22 79° W 05:19:47 10° N
Fermi 4.5 05:18:14 41° SSE 05:18:14 41° SSE 05:21:39 10° ESE
Tiangong 2 2.1 05:19:05 43° NNE 05:19:05 43° NNE 05:21:34 10° NE
Centaur D AC-29 3.2 05:15:47 35° SW 05:18:36 46° S 06:00:24 10° ESE
Cosmos 2082 Rocket 2.5 05:16:24 27° S 05:19:28 64° ESE 05:25:02 10° NNE
Cosmos 923 Rocket 4.0 05:17:54 37° S 05:19:59 82° ESE 05:25:13 10° NNE
Cosmos 1633 Rocket 3.8 05:20:41 10° NNW 05:23:50 36° WNW 05:23:50 36° WNW
PSLV R/B 3.8 05:21:42 10° N 05:25:51 81° WNW 05:26:50 51° SSW
USA 229 DEB 3.8 05:21:18 10° NW 05:28:19 55° WSW 05:35:26 10° S
USA 229 3.8 05:21:24 10° NW 05:28:25 56° WSW 05:35:32 10° S
Meteor 2-3 Rocket 4.2 05:25:58 10° N 05:31:33 61° E 05:37:10 10° SSE
Cosmos 2061 Rocket 4.2 05:28:46 30° SW 05:31:47 55° W 05:38:05 10° N
Cosmos 192 4.2 05:30:46 30° SSW 05:33:13 88° WNW 05:38:12 10° NNE
CZ-4B R/B 3.1 05:31:00 10° N 05:35:28 73° WNW 05:37:40 30° SSW
Cosmos 1680 Rocket 3.4 05:35:41 23° SSW 05:39:03 87° W 05:44:24 10° NNE
CZ-4B R/B 3.2 05:36:57 10° NNE 05:42:25 83° ESE 05:47:45 10° SSW
Cosmos 2112 Rocket 4.0 05:41:31 17° SSW 05:45:35 89° W 05:50:58 10° NNE
Cosmos 2233 Rocket 4.5 05:40:42 10° S 05:46:43 61° E 05:52:44 10° NNE
Shenzhou-11 Module 3.9 05:46:46 19° NW 05:47:31 20° NNW 05:49:55 10° NNE
Cosmos 1892 2.6 05:44:48 10° N 05:48:38 84° W 05:52:29 10° S
Hubble Space Telescope 0.8 05:48:18 33° WSW 05:49:58 67° S 05:54:04 10° E
PAYLOAD B 4.2 05:44:34 10° N 05:50:08 72° WNW 05:55:25 11° SSW
Meteor 1-27 4.4 05:46:49 20° SSW 05:50:41 53° W 05:56:10 10° N
Cosmos 2016 Rocket 4.2 05:47:35 20° SW 05:51:34 46° W 05:57:25 10° N
Cosmos 2084 3.5 05:49:09 20° SSW 05:51:55 70° ESE 05:55:51 10° NE
Cosmos 2369 4.0 05:47:03 10° NNW 05:52:42 72° ENE 05:58:19 10° SSE
ADEOS II 2.7 05:48:16 10° N 05:53:04 37° WNW 05:55:48 22° SW
OAO 2 Rocket 3.2 05:50:54 27° WSW 05:53:35 80° SSE 05:58:35 10° ENE
PSLV R/B 4.0 05:53:02 10° N 05:57:07 41° WNW 05:59:31 21° SW
USA 234 3.3 05:53:15 10° NE 05:59:49 89° NW 06:05:41 14° SW
NOSS 3-1 (C) 4.1 05:55:29 10° NW 06:03:24 70° WSW 06:11:53 10° SSE
COSMOS 2487 3.4 06:02:35 24° WSW 06:03:45 30° WNW 06:06:54 10° N
Cosmos 1825 4.3 06:00:26 10° NNE 06:03:48 30° E 06:07:10 10° SE
Cosmos 1725 Rocket 4.1 05:58:14 10° SSW 06:04:14 53° W 06:10:16 10° N
Kakehashi 4.0 06:00:13 16° W 06:04:50 90° SSW 06:15:18 10° E
Cosmos 1933 Rocket 4.3 06:02:39 10° NNW 06:06:39 33° W 06:10:37 10° SSW
Cosmos 1656 4.0 06:01:08 10° NNW 06:06:51 73° ENE 06:12:30 10° SSE
Lacrosse 4 Rocket 4.2 06:08:37 10° SSE 06:11:36 18° ESE 06:14:36 10° ENE
Okean-O 3.5 06:07:50 10° NNE 06:12:10 51° E 06:16:27 10° S
BREEZE M DEB (TANK) 4.5 06:07:32 10° NW 06:12:39 76° SW 06:37:15 10° SE
Okean O Rocket 2.6 06:11:45 10° NNW 06:15:32 28° WNW 06:18:45 13° SW
Cosmos 1833 Rocket 3.3 06:14:04 13° SW 06:18:32 37° WNW 06:23:43 10° N
Cosmos 1707 Rocket 3.5 06:15:15 10° S 06:19:40 76° W 06:24:04 10° N
Cosmos 1408 3.4 06:16:12 10° N 06:19:45 54° E 06:23:16 10° SSE
Meteor 2-12 Rocket 4.4 06:14:58 10° SSW 06:20:58 66° W 06:26:59 10° N
Cosmos 1900 4.4 06:19:51 10° SW 06:24:47 64° WNW 06:29:52 10° NNE
GPS 2-04 Rocket1 3.8 06:25:13 10° SSW 06:28:14 29° SSE 06:31:21 10° E
ATLAS 2A CENTAUR R/B 3.7 06:28:40 11° WSW 06:31:03 28° S 06:37:37 10° ESE
ATLAS 5 CENTAUR R/B 4.0 06:27:47 10° SSE 06:31:20 23° ESE 06:35:02 10° ENE
Tsikada Rocket 4.3 06:25:51 10° NNW 06:31:53 49° W 06:37:58 10° SSW
EO 1 Del DPAF 3.2 06:30:28 10° SSE 06:34:18 85° WSW 06:38:09 10° NNW
Cosmos 1455 4.0 06:35:51 10° WSW 06:37:47 14° WNW 06:39:44 10° NW
Cosmos 1980 Rocket 3.3 06:33:18 10° N 06:38:45 51° ENE 06:44:11 10° SE
Cosmos 1464 Rocket 4.4 06:34:21 10° S 06:40:32 73° E 06:46:50 10° N
Meteor 1-28 Rocket 3.6 06:38:21 10° SSE 06:42:04 71° ENE 06:45:47 10° N
Cosmos 2278 4.2 06:37:09 10° NW 06:42:20 38° WSW 06:47:31 10° S
ASTEX 1 3.5 06:37:58 10° N 06:42:52 84° E 06:47:44 10° S
H-2A R/B 3.6 06:45:38 10° W 07:23:21 81° S 07:27:59 10° E
